User: anonymous   Login
Location: Unspecified
(0.0000°N, 0.0000°E)
Time: 01:01:37
(UTC+00:00)
Language:

Mublcom - Orbit

View from above orbital plane
View from above orbital plane
View from above satellite
View from above satellite

Ground track
Ground track

The orbit data is extracted from the following two-line orbital elements,

1 25736U 99026B   21023.56873528  .00000199  00000-0  61772-4 0  9997
2 25736  97.6841   9.4608 0003926 259.2095 100.8659 14.49506261143778
Epoch (UTC): 23 January 2021 13:38:58
Eccentricity: 0.0003926
inclination: 97.6841°
perigee height: 724 km
apogee height: 730 km
right ascension of ascending node: 9.4608°
argument of perigee: 259.2095°
revolutions per day: 14.49506261
mean anomaly at epoch: 100.8659°
orbit number at epoch: 14377

The dashed part of the orbit path shows where the satellite is in the earth's shadow,  

DLR